EW8359 Weather Reports


time (UTC)temp
F
wind
direction
speed
knots
gust
knots
rain 1hr
in
rain 24hr
in
rain mn
in
humidity
%
barometer
mb
20260906194615 70 45 2.6 8.7 0.00 0.05 0.05 39 1011.6
20260906193102 69 25 0.9 4.3 0.00 0.05 0.05 41 1011.7
20260906191556 69 24 2.6 7.8 0.00 0.05 0.05 43 1011.8
20260906190053 72 290 1.7 7.0 0.00 0.05 0.05 38 1011.8
20260906184606 70 294 0.0 3.5 0.00 0.05 0.05 44 1011.8
20260906183102 72 350 1.7 5.2 0.00 0.05 0.05 38 1011.8
20260906181550 71 35 3.5 8.7 0.00 0.05 0.05 39 1012.0
20260906181506 71 355 2.6 8.7 0.00 0.05 0.05 43 1012.0
20260906180049 71 14 2.6 8.7 0.00 0.05 0.05 38 1012.1
20260906174545 70 51 2.6 7.8 0.00 0.05 0.05 38 1012.2
20260906173044 71 155 1.7 6.1 0.00 0.05 0.05 45 1012.2
20260906171534 69 186 0.9 9.6 0.00 0.05 0.05 43 1012.4
20260906170037 69 66 2.6 7.8 0.00 0.05 0.05 44 1012.6
20260906164540 68 126 1.7 8.7 0.00 0.05 0.05 49 1012.6
20260906163038 68 58 2.6 5.2 0.00 0.05 0.05 47 1012.8
20260906161527 67 13 3.5 7.8 0.00 0.05 0.05 49 1013.0
20260906160038 67 305 0.9 4.3 0.00 0.05 0.05 51 1013.2
20260906154524 67 231 0.9 7.8 0.00 0.05 0.05 57 1013.4
20260906153021 65 234 0.9 5.2 0.00 0.05 0.05 61 1013.4
20260906151518 65 190 0.9 10.4 0.00 0.05 0.05 65 1013.5
20260906150038 64 84 2.6 7.8 0.00 0.05 0.05 65 1013.5
20260906144513 63 103 1.7 6.1 0.00 0.05 0.05 72 1013.6
20260906143020 62 351 3.5 7.8 0.00 0.05 0.05 74 1013.8
20260906141507 60 152 0.9 4.3 0.00 0.05 0.05 83 1013.8
20260906140005 60 209 0.9 7.8 0.00 0.05 0.05 87 1013.9
20260906134502 59 32 1.7 7.8 0.00 0.05 0.05 87 1013.8
20260906133058 59 58 0.9 7.8 0.00 0.05 0.05 88 1013.7
20260906131557 58 22 0.9 4.3 0.00 0.05 0.05 89 1013.7
20260906130056 58 15 0.0 3.5 0.00 0.05 0.05 89 1013.6
20260906124554 58 9 0.0 4.3 0.00 0.05 0.05 90 1013.5
20260906123054 57 317 0.0 2.6 0.00 0.05 0.05 90 1013.8
20260906121553 57 37 0.9 2.6 0.00 0.05 0.05 90 1013.6
20260906120053 56 38 0.0 1.7 0.00 0.05 0.05 90 1013.5
20260906114551 56 37 0.9 2.6 0.00 0.05 0.05 90 1013.4
20260906113058 56 35 0.0 4.3 0.01 0.05 0.05 91 1013.4
20260906111550 56 329 0.0 1.7 0.02 0.05 0.05 90 1013.3
20260906110046 55 333 0.0 0.9 0.03 0.05 0.05 90 1013.1
20260906104555 55 335 0.0 0.9 0.03 0.05 0.05 91 1012.9
20260906103043 55 334 0.0 1.7 0.02 0.04 0.04 91 1012.9
20260906101543 55 334 0.0 1.7 0.01 0.03 0.03 90 1012.9
20260906100044 55 333 0.0 0.9 0.00 0.02 0.02 90 1012.8
20260906094606 55 333 0.0 0.9 0.00 0.02 0.02 90 1012.7
20260906093039 54 333 0.0 0.0 0.00 0.02 0.02 90 1012.6
20260906091542 54 333 0.0 0.0 0.00 0.02 0.02 90 1012.3
20260906090035 54 333 0.0 0.0 0.00 0.02 0.02 90 1012.3
20260906084538 54 333 0.0 0.0 0.00 0.02 0.02 90 1012.3
20260906083036 54 333 0.0 0.9 0.01 0.02 0.02 89 1012.2
20260906081543 55 333 0.0 0.9 0.02 0.02 0.02 89 1012.1
20260906080028 55 333 0.0 1.7 0.02 0.02 0.02 88 1012.0
20260906074527 56 333 0.0 1.7 0.02 0.02 0.02 87 1012.0
20260906073026 56 333 0.0 2.6 0.01 0.01 0.01 88 1012.0
20260906071526 56 355 0.0 1.7 0.00 0.00 0.00 87 1011.8
20260906070025 56 355 0.0 0.9 0.00 0.00 0.00 88 1012.1
20260906064523 56 355 0.0 0.9 0.00 0.00 0.00 87 1011.9
20260906063028 56 355 0.0 1.7 0.00 0.00 0.00 88 1011.7
20260906061532 56 355 0.0 0.9 0.00 0.00 0.00 87 1011.7
20260906060020 55 355 0.0 1.7 0.00 0.00 0.00 87 1011.8
20260906054519 55 355 0.0 1.7 0.00 0.00 0.00 87 1011.7
20260906053019 56 355 0.0 0.9 0.00 0.00 0.00 86 1011.8
20260906051516 56 355 0.0 1.7 0.00 0.00 0.00 86 1011.9
20260906050016 56 355 0.0 0.9 0.00 0.00 0.00 86 1011.9
20260906044512 57 5 0.0 1.7 0.00 0.00 0.00 85 1011.8
20260906043010 57 9 0.0 0.9 0.00 0.00 0.00 84 1011.6
20260906041507 58 27 0.0 1.7 0.00 0.00 0.00 83 1011.7
20260906040005 58 58 0.0 1.7 0.00 0.00 0.00 83 1011.7
20260906034504 59 22 0.0 2.6 0.00 0.00 0.00 82 1011.7
20260906033002 60 36 0.0 2.6 0.00 0.00 0.00 82 1011.4
20260906031502 60 61 0.9 3.5 0.00 0.00 0.00 81 1011.4
20260906030002 60 59 1.7 4.3 0.00 0.00 0.00 82 1011.4
20260906024603 60 26 0.0 2.6 0.00 0.00 0.00 83 1011.4
20260906023058 60 265 0.0 2.6 0.00 0.00 0.00 83 1011.2
20260906021605 60 111 0.9 4.3 0.00 0.00 0.00 83 1011.1
20260906014559 61 59 0.0 2.6 0.00 0.00 0.00 83 1011.0
20260906013157 62 9 0.0 1.7 0.00 0.00 0.00 84 1011.2
20260906011557 62 330 0.0 1.7 0.00 0.00 0.00 83 1011.0
20260906010105 62 329 0.0 0.9 0.00 0.00 0.00 83 1011.1
20260906004557 63 329 0.0 0.9 0.00 0.00 0.00 81 1011.0
20260906003052 63 329 0.0 1.7 0.00 0.00 0.00 83 1010.9
20260906001600 63 329 0.0 2.6 0.00 0.00 0.00 81 1010.7
20260906000050 63 44 0.0 0.9 0.00 0.00 0.00 80 1010.5
20260905234547 63 47 0.0 1.7 0.00 0.00 0.00 80 1010.5
20260905233047 64 75 0.0 1.7 0.00 0.00 0.00 82 1010.3
20260905231546 64 74 0.0 0.9 0.00 0.00 0.00 81 1010.3
20260905230051 65 74 0.0 0.9 0.00 0.00 0.00 77 1010.1
20260905224544 66 74 0.0 0.9 0.00 0.00 0.00 75 1010.2
20260905223043 67 5 1.7 5.2 0.00 0.00 0.00 72 1010.0
20260905221546 67 37 0.0 3.5 0.00 0.00 0.00 75 1009.8
20260905220035 68 53 0.0 1.7 0.00 0.00 0.00 76 1009.7
20260905214533 68 29 0.9 6.1 0.00 0.00 0.00 70 1009.4
20260905213035 68 12 0.0 4.3 0.00 0.00 0.00 74 1009.3
20260905211542 69 94 0.9 6.1 0.00 0.00 0.00 72 1009.2
20260905210031 69 320 0.9 5.2 0.00 0.00 0.00 68 1009.1
20260905204529 70 333 0.9 7.8 0.00 0.00 0.00 68 1009.0
20260905203032 70 227 0.9 5.2 0.00 0.00 0.00 70 1008.9
20260905201534 70 310 1.7 5.2 0.00 0.00 0.00 68 1008.8
20260905200045 70 328 3.5 7.8 0.00 0.00 0.00 66 1008.8